PAA102 KJFK-KLAX

Flight info

Callsign PAA102
Flight time N/A
Altitude 16000
Route RBV Q430 AIR J80 BOWRR/N0218F200 J80 BAYLI/N0228F200 J80 MCI J24 SLN J102 RYLIE/N0223F220 J102 ALS J44 RSK J64 COCAN/N0228F240 J64 TBC J236 EED TNP SEAVU2
Aircraft DC6/M-SDFHRWXY/S

Departure

Time 2026-04-30 20:29
Airport John F. Kennedy International Airport (KJFK)

Arrival

Time N/A
Airport Los Angeles International Airport (KLAX)
Time Latitude Longitude Altitude Speed Heading
2026-04-30 20:03 40.64024 -73.78874 15 ft 0 kts 319°
2026-04-30 20:16 40.64031 -73.78879 15 ft 1 kts
2026-04-30 20:16 40.64038 -73.78872 15 ft 2 kts 72°
2026-04-30 20:16 40.64031 -73.78812 15 ft 10 kts 116°
2026-04-30 20:16 40.63989 -73.78804 15 ft 9 kts 192°
2026-04-30 20:17 40.63914 -73.78821 16 ft 12 kts 193°
2026-04-30 20:17 40.63875 -73.78843 16 ft 8 kts 214°
2026-04-30 20:17 40.63866 -73.78852 16 ft 0 kts 217°
2026-04-30 20:18 40.63855 -73.78863 16 ft 5 kts 217°
2026-04-30 20:19 40.63804 -73.78913 16 ft 12 kts 213°
2026-04-30 20:19 40.63722 -73.78930 17 ft 12 kts 135°
2026-04-30 20:19 40.63670 -73.78818 17 ft 17 kts 121°
2026-04-30 20:19 40.63605 -73.78673 17 ft 20 kts 120°
2026-04-30 20:20 40.63534 -73.78517 17 ft 18 kts 121°
2026-04-30 20:20 40.63467 -73.78375 17 ft 19 kts 122°
2026-04-30 20:20 40.63401 -73.78230 17 ft 17 kts 116°
2026-04-30 20:20 40.63342 -73.78086 17 ft 20 kts 115°
2026-04-30 20:21 40.63342 -73.77891 16 ft 24 kts 66°
2026-04-30 20:21 40.63449 -73.77752 17 ft 21 kts 31°
2026-04-30 20:21 40.63574 -73.77654 16 ft 22 kts 32°
2026-04-30 20:21 40.63725 -73.77536 16 ft 26 kts 30°
2026-04-30 20:22 40.63888 -73.77409 16 ft 30 kts 31°
2026-04-30 20:22 40.64053 -73.77281 16 ft 29 kts 31°
2026-04-30 20:22 40.64206 -73.77161 16 ft 21 kts 31°
2026-04-30 20:22 40.64341 -73.77055 16 ft 21 kts 31°
2026-04-30 20:23 40.64410 -73.76987 16 ft 0 kts 87°
2026-04-30 20:23 40.64410 -73.76986 16 ft 0 kts 87°
2026-04-30 20:26 40.64400 -73.76932 15 ft 9 kts 125°
2026-04-30 20:26 40.64346 -73.76885 15 ft 9 kts 199°
2026-04-30 20:27 40.64332 -73.76895 16 ft 0 kts 210°
2026-04-30 20:27 40.64244 -73.76964 19 ft 36 kts 211°
2026-04-30 20:28 40.63351 -73.77659 36 ft 105 kts 211°
2026-04-30 20:28 40.61968 -73.78723 312 ft 122 kts 210°
2026-04-30 20:29 40.60381 -73.79872 632 ft 141 kts 209°
2026-04-30 20:30 40.57683 -73.81728 1353 ft 148 kts 209°
2026-04-30 20:30 40.54921 -73.83577 1943 ft 150 kts 209°
2026-04-30 20:31 40.52450 -73.86007 2491 ft 148 kts 223°
2026-04-30 20:32 40.50127 -73.88695 3062 ft 148 kts 224°
2026-04-30 20:32 40.48615 -73.90515 3433 ft 147 kts 229°
2026-04-30 20:33 40.47856 -73.91424 3611 ft 148 kts 224°
2026-04-30 20:33 40.46478 -73.93401 3965 ft 146 kts 230°
2026-04-30 20:33 40.45787 -73.94378 4150 ft 146 kts 231°
2026-04-30 20:34 40.44603 -73.96505 4506 ft 144 kts 242°
2026-04-30 20:34 40.43519 -73.98741 4878 ft 144 kts 242°
2026-04-30 20:35 40.42976 -73.99850 5066 ft 145 kts 239°
2026-04-30 20:35 40.42418 -74.00953 5256 ft 145 kts 239°
2026-04-30 20:35 40.41301 -74.03155 5630 ft 145 kts 239°
2026-04-30 20:36 40.40744 -74.04253 5838 ft 144 kts 239°
2026-04-30 20:36 40.40187 -74.05357 6023 ft 145 kts 239°
2026-04-30 20:36 40.39080 -74.07538 6388 ft 144 kts 239°
2026-04-30 20:37 40.38564 -74.08662 6539 ft 143 kts 251°
2026-04-30 20:37 40.38332 -74.09919 6693 ft 142 kts 259°
2026-04-30 20:37 40.38132 -74.11186 6839 ft 143 kts 259°
2026-04-30 20:37 40.37929 -74.12489 6943 ft 148 kts 259°
2026-04-30 20:38 40.37724 -74.13826 7089 ft 150 kts 259°
2026-04-30 20:38 40.37403 -74.15116 7243 ft 154 kts 242°
2026-04-30 20:38 40.36797 -74.16280 7438 ft 155 kts 239°
2026-04-30 20:39 40.35621 -74.18667 7769 ft 157 kts 239°
2026-04-30 20:39 40.35022 -74.19873 7950 ft 158 kts 239°
2026-04-30 20:39 40.34426 -74.21072 8157 ft 156 kts 239°
2026-04-30 20:40 40.33240 -74.23457 8553 ft 156 kts 239°
2026-04-30 20:40 40.32648 -74.24648 8759 ft 156 kts 239°
2026-04-30 20:40 40.32057 -74.25835 8948 ft 156 kts 239°
2026-04-30 20:41 40.30874 -74.28212 9334 ft 155 kts 239°
2026-04-30 20:41 40.30291 -74.29385 9501 ft 156 kts 239°
2026-04-30 20:41 40.29688 -74.30596 9626 ft 160 kts 239°
2026-04-30 20:41 40.29076 -74.31826 9769 ft 162 kts 239°
2026-04-30 20:42 40.28456 -74.33067 9914 ft 163 kts 239°
2026-04-30 20:42 40.27834 -74.34315 10065 ft 164 kts 239°
2026-04-30 20:42 40.26580 -74.36826 10419 ft 164 kts 239°
2026-04-30 20:43 40.25959 -74.38069 10629 ft 162 kts 240°
2026-04-30 20:43 40.25349 -74.39293 10831 ft 162 kts 239°
2026-04-30 20:43 40.24732 -74.40520 11080 ft 161 kts 240°
2026-04-30 20:44 40.23513 -74.42964 11539 ft 159 kts 240°
2026-04-30 20:44 40.22906 -74.44178 11724 ft 159 kts 240°
2026-04-30 20:44 40.21701 -74.46584 12100 ft 158 kts 240°
2026-04-30 20:45 40.20500 -74.48980 12504 ft 155 kts 240°
2026-04-30 20:45 40.20113 -74.50269 12635 ft 153 kts 265°
2026-04-30 20:45 40.20073 -74.51648 12836 ft 150 kts 264°
2026-04-30 20:46 40.19757 -74.55698 13353 ft 149 kts 263°
2026-04-30 20:46 40.19656 -74.57025 13523 ft 148 kts 263°
2026-04-30 20:47 40.19446 -74.59705 13829 ft 148 kts 263°
2026-04-30 20:47 40.19340 -74.61041 13975 ft 147 kts 263°
2026-04-30 20:48 40.19131 -74.63700 14250 ft 147 kts 263°
2026-04-30 20:48 40.19027 -74.65027 14381 ft 147 kts 263°
2026-04-30 20:48 40.18923 -74.66353 14512 ft 146 kts 263°
2026-04-30 20:48 40.18821 -74.67659 14622 ft 148 kts 262°
2026-04-30 20:49 40.18710 -74.69020 14678 ft 152 kts 263°
2026-04-30 20:49 40.18601 -74.70406 14769 ft 154 kts 262°
2026-04-30 20:49 40.18490 -74.71813 14877 ft 156 kts 262°
2026-04-30 20:50 40.18263 -74.74660 15104 ft 158 kts 262°
2026-04-30 20:50 40.18149 -74.76085 15251 ft 156 kts 262°
2026-04-30 20:50 40.18039 -74.77482 15384 ft 156 kts 262°
2026-04-30 20:50 40.17926 -74.78888 15509 ft 155 kts 262°
2026-04-30 20:51 40.17814 -74.80293 15629 ft 155 kts 262°
2026-04-30 20:51 40.17590 -74.83084 15865 ft 154 kts 262°
2026-04-30 20:51 40.17477 -74.84477 15978 ft 153 kts 262°
2026-04-30 20:52 40.17368 -74.85845 16086 ft 153 kts 262°
2026-04-30 20:52 40.17255 -74.87223 16185 ft 152 kts 262°
2026-04-30 20:52 40.17025 -74.90056 16161 ft 166 kts 262°
2026-04-30 20:53 40.16901 -74.91599 16089 ft 175 kts 262°
2026-04-30 20:53 40.16769 -74.93226 16017 ft 184 kts 262°
2026-04-30 20:53 40.16633 -74.94910 16030 ft 188 kts 262°
2026-04-30 20:54 40.16351 -74.98351 16022 ft 193 kts 262°
2026-04-30 20:54 40.16208 -75.00104 16019 ft 194 kts 262°
2026-04-30 20:54 40.16064 -75.01859 16013 ft 194 kts 262°
2026-04-30 20:55 40.15775 -75.05390 16018 ft 196 kts 262°
2026-04-30 20:55 40.15628 -75.07167 16020 ft 196 kts 262°
2026-04-30 20:55 40.15481 -75.08942 16013 ft 196 kts 262°
2026-04-30 20:56 40.15188 -75.12452 16007 ft 195 kts 262°
2026-04-30 20:56 40.15044 -75.14211 16005 ft 194 kts 262°
2026-04-30 20:56 40.14753 -75.17714 16003 ft 193 kts 262°
2026-04-30 20:57 40.14609 -75.19466 16004 ft 193 kts 263°
2026-04-30 20:57 40.14464 -75.21192 16003 ft 193 kts 262°
2026-04-30 20:57 40.14315 -75.22949 16003 ft 194 kts 262°
2026-04-30 20:58 40.14020 -75.26467 16011 ft 195 kts 262°
2026-04-30 20:58 40.13870 -75.28227 16010 ft 194 kts 262°
2026-04-30 20:58 40.13723 -75.29982 16010 ft 194 kts 262°
2026-04-30 20:58 40.13573 -75.31742 16012 ft 195 kts 262°
2026-04-30 20:59 40.13275 -75.35258 16021 ft 196 kts 262°
2026-04-30 20:59 40.13123 -75.37045 16020 ft 198 kts 262°
2026-04-30 21:00 40.12816 -75.40653 16018 ft 199 kts 262°
2026-04-30 21:00 40.12511 -75.44213 16015 ft 198 kts 262°
2026-04-30 21:01 40.12204 -75.47785 16019 ft 197 kts 262°
2026-04-30 21:01 40.12050 -75.49560 16016 ft 196 kts 262°
2026-04-30 21:01 40.11744 -75.53105 16015 ft 196 kts 262°
2026-04-30 21:02 40.11593 -75.54848 16012 ft 195 kts 262°
2026-04-30 21:02 40.11440 -75.56614 16010 ft 195 kts 262°
2026-04-30 21:02 40.11287 -75.58376 16012 ft 195 kts 262°
2026-04-30 21:02 40.11132 -75.60143 16015 ft 196 kts 262°
2026-04-30 21:03 40.10978 -75.61910 16016 ft 196 kts 262°
2026-04-30 21:03 40.10825 -75.63679 16018 ft 195 kts 262°
2026-04-30 21:03 40.10671 -75.65423 16018 ft 195 kts 262°
2026-04-30 21:03 40.10518 -75.67182 16021 ft 195 kts 262°
2026-04-30 21:04 40.10363 -75.68941 16023 ft 194 kts 262°
2026-04-30 21:04 40.10208 -75.70689 16022 ft 194 kts 262°
2026-04-30 21:04 40.09953 -75.73603 16018 ft 194 kts 262°
2026-04-30 21:05 40.09799 -75.75357 16021 ft 194 kts 262°
2026-04-30 21:05 40.09643 -75.77101 16018 ft 193 kts 262°
2026-04-30 21:05 40.09436 -75.79414 16022 ft 193 kts 262°
2026-04-30 21:05 40.09331 -75.80592 16017 ft 193 kts 262°
2026-04-30 21:06 40.09177 -75.82335 16019 ft 193 kts 262°
2026-04-30 21:06 40.09021 -75.84074 16018 ft 193 kts 262°
2026-04-30 21:06 40.08867 -75.85791 16017 ft 193 kts 262°
2026-04-30 21:06 40.08713 -75.87528 16018 ft 192 kts 262°
2026-04-30 21:07 40.08557 -75.89261 16015 ft 192 kts 262°
2026-04-30 21:07 40.08401 -75.91002 16016 ft 192 kts 262°
2026-04-30 21:07 40.08244 -75.92737 16015 ft 192 kts 262°
2026-04-30 21:07 40.08088 -75.94470 16017 ft 192 kts 262°
2026-04-30 21:08 40.07931 -75.96206 16015 ft 192 kts 262°
2026-04-30 21:08 40.07776 -75.97939 16014 ft 192 kts 262°
2026-04-30 21:08 40.07618 -75.99676 16013 ft 192 kts 262°
2026-04-30 21:08 40.07458 -76.01386 16020 ft 192 kts 262°
2026-04-30 21:09 40.07302 -76.03122 16021 ft 193 kts 262°
2026-04-30 21:09 40.07146 -76.04864 16022 ft 193 kts 262°
2026-04-30 21:09 40.06987 -76.06610 16023 ft 194 kts 262°
2026-04-30 21:09 40.06826 -76.08361 16036 ft 194 kts 262°
2026-04-30 21:10 40.06666 -76.10118 16035 ft 195 kts 262°
2026-04-30 21:10 40.06506 -76.11873 16038 ft 195 kts 262°
2026-04-30 21:10 40.06340 -76.13632 16032 ft 195 kts 262°
2026-04-30 21:10 40.06181 -76.15388 16032 ft 195 kts 262°
2026-04-30 21:11 40.06019 -76.17147 16030 ft 195 kts 262°
2026-04-30 21:11 40.05858 -76.18901 16033 ft 195 kts 262°
2026-04-30 21:11 40.05694 -76.20658 16032 ft 195 kts 262°
2026-04-30 21:11 40.05535 -76.22394 16035 ft 195 kts 262°
2026-04-30 21:12 40.05371 -76.24150 16035 ft 195 kts 262°
2026-04-30 21:12 40.05209 -76.25901 16033 ft 194 kts 262°
2026-04-30 21:12 40.05046 -76.27660 16033 ft 194 kts 262°
2026-04-30 21:12 40.04881 -76.29412 16033 ft 194 kts 262°
2026-04-30 21:13 40.04719 -76.31166 16031 ft 194 kts 262°
2026-04-30 21:13 40.04555 -76.32911 16032 ft 194 kts 262°
2026-04-30 21:13 40.04394 -76.34631 16032 ft 193 kts 262°
2026-04-30 21:13 40.04228 -76.36394 16030 ft 193 kts 262°
2026-04-30 21:14 40.04067 -76.38111 16031 ft 193 kts 262°
2026-04-30 21:14 40.03903 -76.39849 16028 ft 193 kts 262°
2026-04-30 21:14 40.03741 -76.41591 16032 ft 194 kts 262°
2026-04-30 21:14 40.03574 -76.43338 16032 ft 194 kts 262°
2026-04-30 21:15 40.03409 -76.45085 16033 ft 194 kts 262°
2026-04-30 21:15 40.03242 -76.46834 16038 ft 194 kts 262°
2026-04-30 21:15 40.03077 -76.48591 16037 ft 195 kts 262°
2026-04-30 21:15 40.02910 -76.50336 16033 ft 196 kts 262°
2026-04-30 21:16 40.02741 -76.52109 16035 ft 197 kts 262°
2026-04-30 21:16 40.02573 -76.53882 16034 ft 196 kts 262°
2026-04-30 21:16 40.02403 -76.55657 16029 ft 197 kts 262°
2026-04-30 21:16 40.02232 -76.57434 16045 ft 198 kts 262°
2026-04-30 21:17 40.02062 -76.59225 16044 ft 199 kts 262°
2026-04-30 21:17 40.01889 -76.61011 16047 ft 198 kts 262°
2026-04-30 21:17 40.01719 -76.62775 16041 ft 198 kts 262°
2026-04-30 21:17 40.01547 -76.64553 16040 ft 197 kts 262°
2026-04-30 21:18 40.01379 -76.66320 16046 ft 196 kts 262°
2026-04-30 21:18 40.01208 -76.68087 16046 ft 196 kts 262°
2026-04-30 21:18 40.01037 -76.69850 16040 ft 196 kts 262°
2026-04-30 21:18 40.00866 -76.71611 16043 ft 195 kts 262°
2026-04-30 21:19 40.00694 -76.73370 16045 ft 195 kts 262°
2026-04-30 21:19 40.00523 -76.75127 16044 ft 195 kts 262°
2026-04-30 21:19 40.00351 -76.76877 16046 ft 195 kts 262°
2026-04-30 21:19 40.00181 -76.78633 16046 ft 194 kts 262°
2026-04-30 21:20 40.00011 -76.80384 16047 ft 194 kts 262°
2026-04-30 21:20 39.99840 -76.82125 16045 ft 194 kts 262°
2026-04-30 21:20 39.99672 -76.83846 16048 ft 193 kts 262°
2026-04-30 21:20 39.99501 -76.85580 16046 ft 193 kts 262°
2026-04-30 21:21 39.99330 -76.87330 16046 ft 193 kts 262°
2026-04-30 21:21 39.99158 -76.89065 16046 ft 193 kts 262°
2026-04-30 21:21 39.98815 -76.92542 16053 ft 193 kts 262°
2026-04-30 21:22 39.98643 -76.94286 16055 ft 194 kts 262°
2026-04-30 21:22 39.98116 -76.99580 16007 ft 197 kts 262°
2026-04-30 21:23 39.97940 -77.01350 16008 ft 196 kts 262°
2026-04-30 21:23 39.97764 -77.03115 15998 ft 196 kts 262°
2026-04-30 21:23 39.97412 -77.06637 16003 ft 196 kts 262°
2026-04-30 21:24 39.97236 -77.08394 15994 ft 195 kts 262°
2026-04-30 21:24 39.97060 -77.10150 15992 ft 195 kts 262°
2026-04-30 21:24 39.96883 -77.11907 15993 ft 195 kts 262°
2026-04-30 21:24 39.96706 -77.13664 15992 ft 196 kts 262°
2026-04-30 21:25 39.96352 -77.17168 15994 ft 196 kts 262°
2026-04-30 21:25 39.96174 -77.18931 15996 ft 196 kts 262°
2026-04-30 21:25 39.95995 -77.20692 16003 ft 196 kts 262°
2026-04-30 21:26 39.95639 -77.24210 15992 ft 196 kts 262°
2026-04-30 21:26 39.95459 -77.25967 15994 ft 196 kts 262°
2026-04-30 21:27 39.95102 -77.29478 15997 ft 195 kts 262°
2026-04-30 21:27 39.95094 -77.31237 15993 ft 194 kts 272°
2026-04-30 21:27 39.95176 -77.32992 15997 ft 193 kts 271°
2026-04-30 21:28 39.95290 -77.36480 15999 ft 194 kts 271°
2026-04-30 21:28 39.95346 -77.38235 16001 ft 194 kts 271°
2026-04-30 21:28 39.95463 -77.41747 16007 ft 194 kts 271°
2026-04-30 21:29 39.95522 -77.43509 16008 ft 194 kts 271°
2026-04-30 21:29 39.95694 -77.48787 16015 ft 194 kts 271°
2026-04-30 21:30 39.95808 -77.52313 16016 ft 195 kts 271°
2026-04-30 21:31 39.95976 -77.57615 16022 ft 196 kts 271°
2026-04-30 21:31 39.96088 -77.61174 16024 ft 196 kts 271°
2026-04-30 21:32 39.96199 -77.64729 16025 ft 196 kts 271°
2026-04-30 21:32 39.96254 -77.66505 16024 ft 196 kts 271°
2026-04-30 21:32 39.96307 -77.68256 16027 ft 195 kts 271°
2026-04-30 21:32 39.96362 -77.70029 16025 ft 195 kts 271°
2026-04-30 21:33 39.96415 -77.71797 16026 ft 195 kts 271°
2026-04-30 21:33 39.96523 -77.75338 16029 ft 195 kts 271°
2026-04-30 21:33 39.96572 -77.77107 16028 ft 195 kts 271°
2026-04-30 21:34 39.96628 -77.78874 16028 ft 195 kts 271°
2026-04-30 21:34 39.96735 -77.82379 16032 ft 194 kts 271°
2026-04-30 21:34 39.96789 -77.84136 16025 ft 194 kts 271°
2026-04-30 21:35 39.96835 -77.85894 16032 ft 194 kts 271°
2026-04-30 21:35 39.96886 -77.87651 16029 ft 194 kts 271°
2026-04-30 21:35 39.96938 -77.89420 16038 ft 195 kts 271°
2026-04-30 21:35 39.96989 -77.91185 16039 ft 195 kts 271°
2026-04-30 21:36 39.97040 -77.92948 16034 ft 193 kts 272°
2026-04-30 21:36 39.97090 -77.94701 16036 ft 194 kts 271°
2026-04-30 21:37 39.97237 -77.99952 16046 ft 194 kts 271°
2026-04-30 21:37 39.97286 -78.01720 16045 ft 195 kts 271°
2026-04-30 21:37 39.97337 -78.03482 16049 ft 195 kts 272°
2026-04-30 21:37 39.97384 -78.05248 16048 ft 195 kts 271°
2026-04-30 21:38 39.97432 -78.07017 16052 ft 195 kts 272°
2026-04-30 21:38 39.97482 -78.08780 16055 ft 195 kts 271°
2026-04-30 21:38 39.97529 -78.10545 16059 ft 195 kts 271°
2026-04-30 21:38 39.97576 -78.12311 16061 ft 194 kts 271°
2026-04-30 21:39 39.97625 -78.14055 16061 ft 194 kts 272°
2026-04-30 21:39 39.97670 -78.15808 16067 ft 194 kts 271°
2026-04-30 21:39 39.97717 -78.17567 16068 ft 194 kts 272°
2026-04-30 21:39 39.97763 -78.19326 16073 ft 194 kts 271°
2026-04-30 21:40 39.97810 -78.21095 16071 ft 195 kts 271°
2026-04-30 21:40 39.97856 -78.22858 16072 ft 194 kts 271°
2026-04-30 21:40 39.97901 -78.24626 16069 ft 195 kts 272°
2026-04-30 21:40 39.97948 -78.26395 16076 ft 195 kts 272°
2026-04-30 21:41 39.97992 -78.28166 16082 ft 195 kts 272°
2026-04-30 21:41 39.98037 -78.29917 16084 ft 195 kts 272°
2026-04-30 21:41 39.98082 -78.31686 16082 ft 195 kts 272°
2026-04-30 21:41 39.98126 -78.33458 16086 ft 195 kts 272°
2026-04-30 21:42 39.98171 -78.35224 16086 ft 195 kts 272°
2026-04-30 21:42 39.98213 -78.36993 16091 ft 195 kts 272°
2026-04-30 21:42 39.98258 -78.38768 16091 ft 195 kts 272°
2026-04-30 21:42 39.98302 -78.40538 16090 ft 195 kts 271°
2026-04-30 21:43 39.98345 -78.42308 16096 ft 195 kts 272°
2026-04-30 21:43 39.98374 -78.43479 16094 ft 196 kts 272°
2026-04-30 21:43 39.98431 -78.45834 16097 ft 195 kts 272°
2026-04-30 21:43 39.98473 -78.47604 16098 ft 195 kts 272°
2026-04-30 21:44 39.98515 -78.49377 16101 ft 195 kts 272°
2026-04-30 21:44 39.98556 -78.51126 16094 ft 196 kts 272°
2026-04-30 21:44 39.98598 -78.52909 16095 ft 196 kts 271°
2026-04-30 21:44 39.98640 -78.54683 16095 ft 196 kts 271°
2026-04-30 21:45 39.98680 -78.56457 16095 ft 195 kts 272°
2026-04-30 21:45 39.98721 -78.58238 16093 ft 196 kts 272°
2026-04-30 21:45 39.98762 -78.60012 16096 ft 196 kts 271°
2026-04-30 21:45 39.98803 -78.61790 16093 ft 196 kts 272°
2026-04-30 21:46 39.98843 -78.63551 16092 ft 196 kts 272°
2026-04-30 21:46 39.98883 -78.65328 16093 ft 196 kts 272°
2026-04-30 21:46 39.98923 -78.67108 16097 ft 196 kts 272°
2026-04-30 21:46 39.98961 -78.68888 16094 ft 197 kts 272°
2026-04-30 21:47 39.99001 -78.70672 16093 ft 196 kts 272°
2026-04-30 21:47 39.99039 -78.72450 16096 ft 196 kts 272°
2026-04-30 21:47 39.99078 -78.74222 16094 ft 195 kts 271°
2026-04-30 21:47 39.99115 -78.75990 16088 ft 195 kts 272°
2026-04-30 21:48 39.99154 -78.77765 16090 ft 195 kts 272°
2026-04-30 21:48 39.99191 -78.79534 16092 ft 195 kts 272°
2026-04-30 21:48 39.99229 -78.81303 16093 ft 195 kts 271°
2026-04-30 21:48 39.99264 -78.83057 16095 ft 196 kts 272°
2026-04-30 21:49 39.99301 -78.84838 16098 ft 196 kts 272°
2026-04-30 21:49 39.99338 -78.86618 16098 ft 197 kts 272°
2026-04-30 21:49 39.99375 -78.88404 16097 ft 197 kts 272°
2026-04-30 21:49 39.99412 -78.90188 16100 ft 196 kts 272°
2026-04-30 21:50 39.99447 -78.91969 16104 ft 196 kts 272°
2026-04-30 21:50 39.99483 -78.93744 16102 ft 196 kts 272°
2026-04-30 21:50 39.99517 -78.95503 16101 ft 196 kts 272°
2026-04-30 21:50 39.99552 -78.97277 16103 ft 196 kts 272°
2026-04-30 21:51 39.99587 -78.99054 16104 ft 196 kts 272°
2026-04-30 21:51 39.99622 -79.00833 16103 ft 196 kts 272°
2026-04-30 21:51 39.99655 -79.02605 16110 ft 196 kts 272°
2026-04-30 21:51 39.99678 -79.03784 16110 ft 196 kts 272°
2026-04-30 21:52 39.99723 -79.06143 16112 ft 196 kts 272°
2026-04-30 21:52 39.99755 -79.07918 16115 ft 196 kts 272°
2026-04-30 21:52 39.99778 -79.09119 16114 ft 196 kts 272°
2026-04-30 21:52 39.99810 -79.10871 16116 ft 196 kts 272°
2026-04-30 21:53 39.99844 -79.12656 16115 ft 196 kts 272°
2026-04-30 21:53 39.99875 -79.14432 16117 ft 195 kts 272°
2026-04-30 21:53 39.99908 -79.16207 16118 ft 196 kts 272°
2026-04-30 21:53 39.99938 -79.17985 16118 ft 195 kts 272°
2026-04-30 21:54 39.99971 -79.19757 16119 ft 196 kts 272°
2026-04-30 21:54 40.00002 -79.21531 16121 ft 195 kts 272°
2026-04-30 21:54 40.00033 -79.23300 16128 ft 195 kts 272°
2026-04-30 21:54 40.00063 -79.25057 16123 ft 195 kts 272°
2026-04-30 21:55 40.00093 -79.26825 16124 ft 195 kts 272°
2026-04-30 21:55 40.00123 -79.28597 16121 ft 195 kts 272°
2026-04-30 21:55 40.00153 -79.30368 16126 ft 195 kts 272°
2026-04-30 21:55 40.00183 -79.32138 16124 ft 195 kts 272°
2026-04-30 21:56 40.00207 -79.33905 16128 ft 194 kts 272°
2026-04-30 21:56 40.00239 -79.35646 16126 ft 195 kts 273°
2026-04-30 21:56 40.00272 -79.37418 16132 ft 195 kts 272°
2026-04-30 21:56 40.00299 -79.39188 16130 ft 195 kts 272°
2026-04-30 21:57 40.00326 -79.40970 16134 ft 196 kts 272°
2026-04-30 21:57 40.00354 -79.42744 16128 ft 195 kts 272°
2026-04-30 21:57 40.00382 -79.44496 16133 ft 195 kts 272°
2026-04-30 21:57 40.00409 -79.46271 16130 ft 195 kts 273°
2026-04-30 21:58 40.00436 -79.48040 16127 ft 195 kts 273°
2026-04-30 21:58 40.00462 -79.49808 16128 ft 194 kts 273°
2026-04-30 21:58 40.00489 -79.51568 16128 ft 194 kts 272°
2026-04-30 21:58 40.00513 -79.53324 16124 ft 193 kts 273°
2026-04-30 21:59 40.00542 -79.55077 16125 ft 194 kts 273°
2026-04-30 21:59 40.00567 -79.56839 16128 ft 194 kts 272°
2026-04-30 21:59 40.00592 -79.58609 16130 ft 195 kts 273°
2026-04-30 22:00 40.00642 -79.62135 16132 ft 195 kts 273°
2026-04-30 22:00 40.00691 -79.65679 16131 ft 195 kts 273°
2026-04-30 22:00 40.00715 -79.67451 16133 ft 196 kts 273°
2026-04-30 22:01 40.00739 -79.69207 16130 ft 195 kts 273°
2026-04-30 22:01 40.00762 -79.70978 16129 ft 195 kts 273°
2026-04-30 22:01 40.00786 -79.72753 16132 ft 195 kts 272°
2026-04-30 22:01 40.00808 -79.74528 16127 ft 195 kts 273°
2026-04-30 22:02 40.00832 -79.76302 16127 ft 195 kts 273°
2026-04-30 22:02 40.00855 -79.78076 16124 ft 195 kts 273°
2026-04-30 22:02 40.00876 -79.79848 16129 ft 195 kts 273°
2026-04-30 22:02 40.00898 -79.81599 16127 ft 195 kts 273°
2026-04-30 22:03 40.00920 -79.83371 16130 ft 196 kts 273°
2026-04-30 22:03 40.00942 -79.85150 16128 ft 196 kts 273°
2026-04-30 22:03 40.00962 -79.86923 16129 ft 196 kts 273°
2026-04-30 22:03 40.00984 -79.88697 16131 ft 196 kts 273°
2026-04-30 22:04 40.01005 -79.90475 16124 ft 196 kts 273°
2026-04-30 22:04 40.01025 -79.92252 16122 ft 195 kts 273°
2026-04-30 22:04 40.01064 -79.95779 16128 ft 195 kts 273°
2026-04-30 22:05 40.01085 -79.97545 16132 ft 195 kts 273°
2026-04-30 22:05 40.01103 -79.99313 16130 ft 195 kts 273°
2026-04-30 22:05 40.01121 -80.01084 16140 ft 195 kts 273°
2026-04-30 22:05 40.01142 -80.02850 16138 ft 195 kts 273°
2026-04-30 22:06 40.01159 -80.04622 16137 ft 195 kts 273°
2026-04-30 22:06 40.01196 -80.08142 16143 ft 195 kts 273°
2026-04-30 22:06 40.01213 -80.09910 16138 ft 194 kts 273°
2026-04-30 22:07 40.01230 -80.11673 16146 ft 194 kts 273°
2026-04-30 22:07 40.01248 -80.13436 16146 ft 195 kts 273°
2026-04-30 22:07 40.01264 -80.15207 16147 ft 194 kts 272°
2026-04-30 22:07 40.01281 -80.16971 16151 ft 195 kts 273°
2026-04-30 22:08 40.01297 -80.18721 16144 ft 195 kts 272°
2026-04-30 22:08 40.01313 -80.20487 16149 ft 195 kts 272°
2026-04-30 22:08 40.01329 -80.22254 16149 ft 195 kts 272°
2026-04-30 22:08 40.01343 -80.24025 16151 ft 195 kts 272°
2026-04-30 22:09 40.01361 -80.25796 16144 ft 195 kts 273°
2026-04-30 22:09 40.01376 -80.27564 16152 ft 195 kts 272°
2026-04-30 22:09 40.01388 -80.29336 16151 ft 195 kts 272°
2026-04-30 22:09 40.01403 -80.31092 16149 ft 195 kts 272°
2026-04-30 22:10 40.01418 -80.32862 16148 ft 195 kts 272°
2026-04-30 22:10 40.01432 -80.34634 16152 ft 195 kts 272°
2026-04-30 22:10 40.01445 -80.36405 16150 ft 195 kts 272°
2026-04-30 22:10 40.01459 -80.38175 16154 ft 195 kts 272°
2026-04-30 22:11 40.01485 -80.41720 16149 ft 196 kts 272°
2026-04-30 22:11 40.01497 -80.43478 16148 ft 196 kts 272°
2026-04-30 22:11 40.01508 -80.45256 16149 ft 196 kts 272°
2026-04-30 22:12 40.01522 -80.47042 16148 ft 197 kts 272°
2026-04-30 22:12 40.01533 -80.48833 16146 ft 197 kts 272°
2026-04-30 22:12 40.01545 -80.50598 16138 ft 197 kts 272°
2026-04-30 22:12 40.01557 -80.52390 16141 ft 197 kts 272°
2026-04-30 22:13 40.01567 -80.54174 16131 ft 197 kts 272°
2026-04-30 22:13 40.01578 -80.55969 16128 ft 197 kts 272°
2026-04-30 22:13 40.01589 -80.57756 16133 ft 197 kts 272°
2026-04-30 22:13 40.01599 -80.59521 16131 ft 197 kts 272°
2026-04-30 22:14 40.01609 -80.61307 16133 ft 197 kts 272°
2026-04-30 22:14 40.01618 -80.63099 16130 ft 197 kts 272°
2026-04-30 22:14 40.01628 -80.64890 16133 ft 197 kts 272°
2026-04-30 22:14 40.01635 -80.66679 16130 ft 197 kts 272°
2026-04-30 22:15 40.01650 -80.68465 16131 ft 196 kts 272°
2026-04-30 22:15 40.01653 -80.70239 16130 ft 196 kts 272°
2026-04-30 22:15 40.01661 -80.71991 16132 ft 196 kts 272°
2026-04-30 22:15 40.01670 -80.73774 16132 ft 196 kts 272°
2026-04-30 22:16 40.01678 -80.75558 16132 ft 197 kts 272°
2026-04-30 22:16 40.01685 -80.77346 16132 ft 197 kts 272°
2026-04-30 22:17 40.01805 -80.82698 16130 ft 195 kts 280°
2026-04-30 22:17 40.02047 -80.84446 16133 ft 195 kts 279°
2026-04-30 22:17 40.02472 -80.87912 16133 ft 194 kts 279°
2026-04-30 22:18 40.02688 -80.89655 16125 ft 194 kts 279°
2026-04-30 22:18 40.03117 -80.93135 16133 ft 194 kts 279°
2026-04-30 22:19 40.03544 -80.96593 16135 ft 194 kts 279°
2026-04-30 22:19 40.03758 -80.98334 16137 ft 195 kts 279°
2026-04-30 22:19 40.04188 -81.01832 16139 ft 195 kts 279°
2026-04-30 22:20 40.04403 -81.03586 16137 ft 195 kts 278°
2026-04-30 22:20 40.04833 -81.07097 16139 ft 196 kts 278°
2026-04-30 22:20 40.05045 -81.08836 16140 ft 196 kts 278°
2026-04-30 22:21 40.05259 -81.10597 16140 ft 196 kts 278°
2026-04-30 22:21 40.05473 -81.12355 16139 ft 196 kts 278°
2026-04-30 22:21 40.05688 -81.14114 16141 ft 196 kts 278°
2026-04-30 22:21 40.05901 -81.15870 16139 ft 196 kts 278°
2026-04-30 22:22 40.06111 -81.17607 16139 ft 196 kts 278°
2026-04-30 22:22 40.06324 -81.19358 16145 ft 195 kts 278°
2026-04-30 22:22 40.06536 -81.21106 16143 ft 195 kts 278°
2026-04-30 22:22 40.06747 -81.22860 16146 ft 196 kts 278°
2026-04-30 22:23 40.06958 -81.24617 16146 ft 196 kts 278°
2026-04-30 22:23 40.07172 -81.26378 16144 ft 196 kts 278°
2026-04-30 22:23 40.07384 -81.28142 16149 ft 196 kts 278°
2026-04-30 22:23 40.07596 -81.29907 16146 ft 196 kts 278°
2026-04-30 22:24 40.07806 -81.31664 16141 ft 196 kts 278°
2026-04-30 22:24 40.08018 -81.33424 16144 ft 196 kts 278°
2026-04-30 22:24 40.08228 -81.35185 16142 ft 196 kts 278°
2026-04-30 22:24 40.08440 -81.36939 16146 ft 196 kts 278°
2026-04-30 22:25 40.08644 -81.38671 16149 ft 195 kts 278°
2026-04-30 22:25 40.08855 -81.40426 16147 ft 196 kts 278°
2026-04-30 22:25 40.09065 -81.42188 16149 ft 196 kts 278°
2026-04-30 22:25 40.09274 -81.43949 16153 ft 196 kts 278°
2026-04-30 22:26 40.09694 -81.47484 16151 ft 196 kts 278°
2026-04-30 22:26 40.09901 -81.49247 16150 ft 196 kts 278°
2026-04-30 22:26 40.10111 -81.51005 16153 ft 196 kts 278°
2026-04-30 22:27 40.10318 -81.52763 16147 ft 196 kts 278°
2026-04-30 22:27 40.10523 -81.54498 16148 ft 195 kts 278°
2026-04-30 22:27 40.10936 -81.58005 16150 ft 195 kts 278°
2026-04-30 22:28 40.11347 -81.61516 16143 ft 195 kts 278°
2026-04-30 22:28 40.11325 -81.63272 16157 ft 194 kts 265°
2026-04-30 22:29 40.11014 -81.68528 16153 ft 193 kts 268°
2026-04-30 22:29 40.10939 -81.70281 16153 ft 193 kts 268°
2026-04-30 22:30 40.10638 -81.77275 16148 ft 194 kts 268°
2026-04-30 22:31 40.10407 -81.82536 16139 ft 193 kts 268°
2026-04-30 22:32 40.10175 -81.87786 16147 ft 192 kts 268°
2026-04-30 22:32 40.10019 -81.91283 16146 ft 192 kts 268°
2026-04-30 22:33 40.09784 -81.96514 16146 ft 193 kts 268°
2026-04-30 22:33 40.09626 -82.00017 16149 ft 193 kts 268°
2026-04-30 22:34 40.09388 -82.05233 16145 ft 193 kts 268°
2026-04-30 22:35 40.09226 -82.08728 16144 ft 193 kts 268°
2026-04-30 22:36 40.08902 -82.15701 16146 ft 193 kts 268°
2026-04-30 22:36 40.08820 -82.17449 16145 ft 193 kts 268°
2026-04-30 22:37 40.08572 -82.22688 16147 ft 192 kts 268°
2026-04-30 22:37 40.08489 -82.24427 16146 ft 192 kts 268°
2026-04-30 22:37 40.08324 -82.27905 16144 ft 192 kts 268°
2026-04-30 22:38 40.08158 -82.31358 16139 ft 192 kts 268°
2026-04-30 22:38 40.07990 -82.34827 16144 ft 191 kts 268°
2026-04-30 22:39 40.07907 -82.36560 16140 ft 191 kts 268°
2026-04-30 22:39 40.07680 -82.41188 16142 ft 191 kts 268°
2026-04-30 22:40 40.07397 -82.46946 16144 ft 190 kts 268°
2026-04-30 22:41 40.07168 -82.51534 16143 ft 190 kts 268°
2026-04-30 22:41 40.06996 -82.54972 16144 ft 190 kts 268°
2026-04-30 22:42 40.06649 -82.61827 16141 ft 189 kts 268°
2026-04-30 22:43 40.06475 -82.65252 16146 ft 188 kts 268°
2026-04-30 22:43 40.06300 -82.68664 16146 ft 188 kts 268°
2026-04-30 22:44 40.06125 -82.72047 16146 ft 188 kts 268°
2026-04-30 22:45 40.05771 -82.78851 16141 ft 188 kts 268°
2026-04-30 22:45 40.05593 -82.82256 16143 ft 188 kts 268°
2026-04-30 22:46 40.05413 -82.85656 16139 ft 187 kts 268°
2026-04-30 22:47 40.05053 -82.92433 16143 ft 187 kts 267°
2026-04-30 22:47 40.04871 -82.95829 16143 ft 187 kts 267°
2026-04-30 22:48 40.04688 -82.99220 16150 ft 187 kts 267°
2026-04-30 22:49 40.04413 -83.04283 16147 ft 187 kts 267°
2026-04-30 22:49 40.04135 -83.09372 16149 ft 187 kts 267°
2026-04-30 22:50 40.03761 -83.16119 16152 ft 186 kts 267°
2026-04-30 22:51 40.03573 -83.19494 16151 ft 186 kts 267°
2026-04-30 22:51 40.03385 -83.22868 16148 ft 186 kts 267°
2026-04-30 22:52 40.03291 -83.24549 16150 ft 186 kts 267°
2026-04-30 22:52 40.03101 -83.27899 16154 ft 186 kts 267°
2026-04-30 22:53 40.02910 -83.31266 16163 ft 186 kts 267°
2026-04-30 22:53 40.02719 -83.34627 16166 ft 185 kts 267°
2026-04-30 22:53 40.02624 -83.36305 16166 ft 185 kts 267°
2026-04-30 22:54 40.02432 -83.39632 16174 ft 185 kts 267°
2026-04-30 22:55 40.02142 -83.44649 16168 ft 185 kts 267°
2026-04-30 22:55 40.01949 -83.47970 16169 ft 184 kts 267°
2026-04-30 22:56 40.01754 -83.51302 16164 ft 184 kts 267°
2026-04-30 22:56 40.01461 -83.56274 16169 ft 183 kts 267°
2026-04-30 22:57 40.01266 -83.59571 16169 ft 183 kts 267°
2026-04-30 22:57 40.01069 -83.62886 16173 ft 183 kts 267°
2026-04-30 22:58 40.00870 -83.66215 16170 ft 184 kts 267°
2026-04-30 22:59 40.00573 -83.71173 16170 ft 183 kts 267°
2026-04-30 22:59 40.00271 -83.76149 16170 ft 183 kts 266°